Tracking 30260 objects as of 15-Feb-2025
HD Live streaming from Space Station
objects crossing your sky now

STARLINK-32768

Track STARLINK-32768 now!
10-day predictions
STARLINK-32768 is classified as:


NORAD ID: 62503
Int'l Code: 2025-003S
Perigee: 449.4 km
Apogee: 452.9 km
Inclination: 43.0 °
Period: 93.5 minutes
Semi major axis: 6822 km
RCS: Unknown
Launch date: January 6, 2025
Source: United States (US)
Launch site: AIR FORCE EASTERN TEST RANGE (AFETR)
Your satellite tracking list
Your tracking list is empty




NASA's NSSDC Master Catalog

Two Line Element Set (TLE):
1 62503U 25003S   25045.11301251 -.00001164  00000-0 -20582-4 0  9991
2 62503  43.0052 326.0517 0002535 267.2222  92.8345 15.40710193  7092
Source of the keplerian elements: AFSPC